Date,TemperatureHighF,TemperatureAvgF,TemperatureLowF,DewpointHighF,DewpointAvgF,DewpointLowF,HumidityHigh,HumidityAvg,HumidityLow,PressureMaxIn,PressureMinIn,WindSpeedMaxMPH,WindSpeedAvgMPH,GustSpeedMaxMPH,PrecipitationSumIn
2013-1-1,35.0,32.9,28.0,35.0,32.9,28.0,100,100,100,0.00,40.00,11,5,16,0.27
2013-1-2,30.0,26.9,24.0,30.0,26.6,21.0,100,99,85,0.00,40.00,9,5,11,0.01
2013-1-3,42.0,30.9,25.0,27.0,24.1,21.0,97,77,51,0.00,40.00,11,7,18,0.00
2013-1-4,40.0,32.7,26.0,27.0,22.1,18.0,87,65,46,0.00,40.00,8,6,14,0.00
2013-1-5,39.0,36.2,32.0,33.0,26.5,18.0,87,68,47,0.00,40.00,10,7,18,0.00
2013-1-6,47.0,37.8,31.0,34.0,24.6,19.0,92,62,32,0.00,40.00,16,10,24,0.00
2013-1-7,44.0,36.6,31.0,26.0,22.3,18.0,73,56,42,0.00,40.00,12,8,17,0.00
2013-1-8,47.0,40.3,33.0,45.0,32.3,21.0,100,74,56,0.00,40.00,11,8,17,0.38
2013-1-9,53.0,48.3,44.0,50.0,47.1,44.0,100,96,82,0.00,40.00,20,12,30,0.43
2013-1-10,54.0,50.9,46.0,54.0,50.9,46.0,100,100,100,0.00,40.00,20,14,31,0.88
2013-1-11,58.0,49.4,43.0,49.0,45.8,43.0,100,89,65,0.00,40.00,13,10,22,0.04
2013-1-12,57.0,49.1,30.0,57.0,48.4,30.0,100,98,89,0.00,40.00,21,8,29,0.79
2013-1-13,32.0,26.4,19.0,32.0,23.9,13.0,100,91,72,0.00,40.00,18,13,31,0.38
2013-1-14,32.0,22.3,17.0,14.0,10.1,6.0,80,59,42,0.00,40.00,14,8,22,0.00
2013-1-15,29.0,23.6,19.0,24.0,16.5,9.0,94,75,55,0.00,40.00,14,8,21,0.01
2013-1-16,41.0,30.5,23.0,20.0,12.2,1.0,82,48,25,0.00,40.00,11,7,17,0.01
2013-1-17,46.0,37.9,32.0,30.0,23.2,15.0,64,56,46,0.00,40.00,13,9,25,0.00
2013-1-18,47.0,39.6,33.0,28.0,25.1,22.0,68,56,46,0.00,40.00,10,8,18,0.00
2013-1-19,56.0,46.7,39.0,37.0,30.1,21.0,61,52,46,0.00,40.00,13,9,20,0.00
2013-1-20,53.0,47.4,41.0,39.0,30.6,25.0,74,53,38,0.00,40.00,10,7,17,0.00
2013-1-21,44.0,34.3,26.0,30.0,15.1,9.0,67,46,29,0.00,40.00,16,8,22,0.00
2013-1-22,35.0,28.5,24.0,20.0,15.3,12.0,69,58,50,0.00,40.00,11,8,18,0.00
2013-1-23,55.0,43.8,28.0,48.0,33.8,20.0,85,69,51,0.00,40.00,8,5,13,0.00
2013-1-24,51.0,35.8,25.0,46.0,24.6,13.0,99,65,46,0.00,40.00,16,11,22,0.00
2013-1-25,43.0,35.3,25.0,43.0,33.6,25.0,100,94,67,0.00,40.00,12,5,18,0.03
2013-1-26,48.0,43.8,40.0,32.0,20.9,13.0,71,41,28,0.00,40.00,13,9,25,0.02
2013-1-27,53.0,43.9,38.0,53.0,42.1,29.0,100,94,64,0.00,40.00,14,11,21,0.09
2013-1-28,63.0,58.6,53.0,63.0,58.6,53.0,100,100,100,0.00,40.00,11,9,18,0.03
2013-1-29,61.0,57.3,49.0,61.0,57.3,49.0,100,100,100,0.00,40.00,16,11,32,1.53
2013-1-30,49.0,35.4,26.0,49.0,31.9,21.0,100,87,72,0.00,40.00,20,12,34,1.22
2013-1-31,52.0,37.1,22.0,25.0,18.7,4.0,82,49,28,0.00,40.00,21,12,31,0.00
2013-2-1,33.0,24.3,14.0,14.0,6.0,-4.0,58,45,27,0.00,40.00,15,9,27,0.00
2013-2-2,53.0,41.2,28.0,29.0,22.8,14.0,58,48,33,0.00,40.00,11,8,18,0.00
2013-2-3,54.0,45.6,39.0,28.0,21.9,17.0,54,40,26,0.00,40.00,15,9,25,0.00
2013-2-4,49.0,44.1,41.0,46.0,34.8,20.0,100,74,38,0.00,40.00,11,7,17,0.04
2013-2-5,58.0,50.5,42.0,49.0,44.7,33.0,100,81,49,0.00,40.00,10,6,14,0.01
2013-2-6,54.0,48.8,45.0,46.0,36.8,27.0,100,65,46,0.00,40.00,13,10,22,0.01
2013-2-7,53.0,48.2,45.0,52.0,47.2,42.0,100,96,85,0.00,40.00,15,8,23,0.39
2013-2-8,53.0,41.7,33.0,45.0,33.4,27.0,100,76,36,0.00,40.00,15,9,25,0.21
2013-2-9,36.0,32.5,28.0,36.0,32.1,27.0,100,98,70,0.00,40.00,15,12,24,0.18
2013-2-10,57.0,48.4,36.0,54.0,37.3,25.0,100,72,35,0.00,40.00,15,12,25,1.13
2013-2-11,51.0,42.6,36.0,30.0,25.0,22.0,60,50,37,0.00,40.00,15,8,26,0.72
2013-2-12,45.0,38.6,32.0,36.0,28.4,22.0,100,70,45,0.00,40.00,12,7,26,0.11
2013-2-13,45.0,37.1,31.0,39.0,33.0,30.0,100,87,62,0.00,40.00,12,9,20,0.17
2013-2-14,58.0,47.7,40.0,34.0,29.6,22.0,66,50,37,0.00,40.00,14,8,22,0.03
2013-2-15,43.0,35.2,28.0,29.0,20.1,10.0,67,54,41,0.00,40.00,15,11,25,0.00
2013-2-16,36.0,30.0,24.0,21.0,13.3,7.0,87,51,29,0.00,40.00,12,8,22,0.00
2013-2-17,54.0,42.3,31.0,32.0,20.7,8.0,54,42,34,0.00,40.00,10,8,16,0.00
2013-2-18,54.0,46.4,36.0,54.0,40.3,29.0,100,81,54,0.00,40.00,18,12,36,0.20
2013-2-19,43.0,34.8,27.0,29.0,16.5,13.0,77,48,32,0.00,40.00,19,10,39,0.20
2013-2-20,34.0,28.6,25.0,29.0,19.9,9.0,100,74,43,0.00,40.00,14,8,24,0.03
2013-2-21,32.0,29.7,26.0,32.0,26.4,20.0,100,88,66,0.00,40.00,19,9,32,0.03
2013-2-22,37.0,29.6,23.0,35.0,28.3,22.0,100,95,84,0.00,40.00,5,1,8,0.61
2013-2-23,45.0,33.3,23.0,28.0,24.1,19.0,92,71,50,0.00,40.00,8,5,12,0.04
2013-2-24,50.0,41.0,33.0,32.0,28.8,23.0,82,62,48,0.00,40.00,16,11,25,0.01
2013-2-25,49.0,42.2,36.0,42.0,34.3,27.0,100,77,47,0.00,40.00,19,13,37,0.77
2013-2-26,36.0,32.1,30.0,36.0,32.1,30.0,100,100,95,0.00,40.00,13,10,27,0.22
2013-2-27,38.0,32.8,30.0,32.0,28.7,24.0,100,86,62,0.00,40.00,15,11,27,0.01
2013-2-28,41.0,32.0,26.0,27.0,24.4,22.0,100,75,53,0.00,40.00,15,11,24,0.00
2013-3-1,31.0,27.1,23.0,23.0,20.1,16.0,87,74,60,0.00,40.00,15,10,24,0.00
2013-3-2,37.0,27.9,23.0,22.0,17.3,11.0,97,67,38,0.00,40.00,13,8,23,0.00
2013-3-3,48.0,36.9,26.0,27.0,20.0,14.0,64,51,39,0.00,40.00,13,9,20,0.00
2013-3-4,54.0,45.4,39.0,50.0,40.1,25.0,100,83,54,0.00,40.00,15,10,21,0.00
2013-3-5,51.0,38.5,31.0,51.0,24.9,13.0,100,63,32,0.00,40.00,24,16,39,0.01
2013-3-6,47.0,35.0,23.0,24.0,18.9,15.0,77,53,36,0.00,40.00,18,9,32,0.01
2013-3-7,53.0,43.4,35.0,31.0,25.7,20.0,67,50,36,0.00,40.00,13,10,21,0.00
2013-3-8,55.0,45.7,39.0,35.0,30.6,28.0,69,56,41,0.00,40.00,14,12,23,0.00
2013-3-9,59.0,52.4,46.0,56.0,43.5,33.0,100,72,55,0.00,40.00,17,12,29,0.18
2013-3-10,54.0,43.3,30.0,54.0,43.1,30.0,100,99,91,0.00,40.00,14,9,29,2.01
2013-3-11,44.0,33.2,26.0,30.0,24.0,16.0,100,73,38,0.00,40.00,12,9,21,0.01
2013-3-12,54.0,43.2,35.0,34.0,20.8,13.0,51,41,27,0.00,40.00,13,9,23,0.01
2013-3-13,51.0,40.4,31.0,22.0,13.5,7.0,58,36,18,0.00,40.00,13,8,22,0.00
2013-3-14,64.0,50.6,40.0,40.0,25.1,12.0,48,37,28,0.00,40.00,12,8,20,0.00
2013-3-15,74.0,63.0,56.0,50.0,43.0,38.0,57,49,31,0.00,40.00,18,11,26,0.00
2013-3-16,72.0,63.4,57.0,50.0,45.9,40.0,63,53,44,0.00,40.00,10,7,19,0.00
2013-3-17,63.0,48.4,41.0,48.0,44.4,41.0,100,88,58,0.00,40.00,12,8,20,0.17
2013-3-18,50.0,44.8,43.0,46.0,40.6,29.0,100,87,47,0.00,40.00,15,9,25,0.03
2013-3-19,52.0,45.3,38.0,29.0,19.6,12.0,58,38,21,0.00,40.00,12,6,19,0.00
2013-3-20,47.0,40.2,35.0,30.0,19.7,11.0,61,44,27,0.00,40.00,13,8,24,0.00
2013-3-21,36.0,32.8,30.0,32.0,15.4,5.0,100,53,28,0.00,40.00,12,8,21,0.12
2013-3-22,38.0,34.4,31.0,38.0,34.4,31.0,100,100,100,0.00,40.00,9,4,15,0.89
2013-3-23,39.0,37.4,34.0,39.0,37.4,34.0,100,100,100,0.00,40.00,11,8,19,0.05
2013-3-24,39.0,31.7,25.0,39.0,30.3,18.0,100,94,75,0.00,40.00,20,13,39,0.05
2013-3-25,30.0,26.0,23.0,23.0,17.6,16.0,83,70,60,0.00,40.00,19,13,36,0.01
2013-3-26,44.0,31.2,22.0,23.0,19.9,17.0,100,66,35,0.00,40.00,14,8,22,0.01
2013-3-27,54.0,41.3,33.0,27.0,21.5,17.0,59,46,33,0.00,40.00,12,8,18,0.00
2013-3-28,62.0,59.5,57.0,47.0,44.1,42.0,69,57,52,0.00,40.00,12,7,17,0.00
2013-3-29,59.0,54.2,51.0,58.0,51.8,46.0,100,92,69,0.00,40.00,9,6,15,0.37
2013-3-30,61.0,53.4,48.0,60.0,50.9,-99.9,100,98,83,0.00,40.00,9,7,19,0.37
2013-3-31,65.0,56.6,51.0,55.0,49.7,40.0,100,80,40,0.00,40.00,14,7,24,0.10
2013-4-1,66.0,56.6,47.0,46.0,39.6,34.0,77,53,41,0.00,40.00,11,6,18,0.01
2013-4-2,47.0,37.7,33.0,40.0,33.0,27.0,100,85,62,0.00,40.00,13,11,21,0.67
2013-4-3,47.0,38.8,33.0,34.0,23.0,18.0,97,54,34,0.00,40.00,18,12,30,0.11
2013-4-4,46.0,40.9,35.0,41.0,31.2,23.0,100,70,50,0.00,40.00,11,7,17,0.13
2013-4-5,62.0,53.6,43.0,39.0,31.6,26.0,54,43,33,0.00,40.00,10,7,18,0.01
2013-4-6,69.0,57.9,49.0,47.0,39.8,32.0,63,51,37,0.00,40.00,18,11,29,0.00
2013-4-7,65.0,60.4,56.0,56.0,50.9,44.0,88,72,57,0.00,40.00,15,9,25,0.00
2013-4-8,68.0,60.3,57.0,64.0,57.5,55.0,100,92,70,0.00,40.00,14,10,22,0.00
2013-4-9,75.0,65.5,58.0,64.0,59.3,55.0,100,83,54,0.00,40.00,18,13,27,0.01
2013-4-10,69.0,56.2,37.0,67.0,55.1,37.0,100,96,78,0.00,40.00,17,11,42,0.58
2013-4-11,52.0,40.2,31.0,37.0,31.9,27.0,100,77,39,0.00,40.00,16,10,26,0.16
2013-4-12,60.0,49.3,40.0,31.0,28.4,23.0,64,46,27,0.00,40.00,14,8,22,0.00
2013-4-13,63.0,52.5,45.0,45.0,36.3,29.0,69,54,45,0.00,40.00,10,7,19,0.02
2013-4-14,72.0,62.1,54.0,52.0,47.3,44.0,81,61,41,0.00,40.00,16,11,27,0.01
2013-4-15,71.0,62.3,57.0,65.0,59.9,52.0,100,92,73,0.00,40.00,13,10,20,0.00
2013-4-16,78.0,70.2,64.0,68.0,63.7,61.0,100,82,56,0.00,40.00,12,9,21,0.00
2013-4-17,76.0,69.8,66.0,72.0,66.0,62.0,100,89,67,0.00,40.00,17,12,26,0.00
2013-4-18,70.0,52.8,36.0,67.0,50.5,29.0,100,92,76,0.00,40.00,21,14,33,0.98
2013-4-19,52.0,40.1,31.0,29.0,23.1,19.0,76,53,27,0.00,40.00,15,11,27,0.01
2013-4-20,62.0,52.6,44.0,36.0,29.9,23.0,52,42,36,0.00,40.00,14,6,21,0.00
2013-4-21,62.0,54.7,49.0,41.0,36.3,32.0,64,51,36,0.00,40.00,15,10,25,0.00
2013-4-22,67.0,58.2,51.0,43.0,37.8,31.0,56,47,38,0.00,40.00,15,10,23,0.00
2013-4-23,63.0,55.0,37.0,57.0,47.5,37.0,100,78,56,0.00,40.00,13,10,21,0.10
2013-4-24,55.0,42.5,33.0,37.0,28.9,21.0,100,66,29,0.00,40.00,19,10,31,0.34
2013-4-25,63.0,53.3,41.0,37.0,28.6,19.0,55,39,21,0.00,40.00,11,7,20,0.01
2013-4-26,53.0,49.0,45.0,49.0,41.6,34.0,100,79,48,0.00,40.00,17,12,29,1.07
2013-4-27,55.0,51.4,49.0,55.0,51.4,49.0,100,100,99,0.00,40.00,13,7,27,1.14
2013-4-28,68.0,56.2,46.0,59.0,51.2,46.0,100,85,55,0.00,40.00,13,7,19,0.02
2013-4-29,76.0,63.2,55.0,61.0,55.6,51.0,96,78,54,0.00,40.00,10,7,17,0.01
2013-4-30,75.0,71.1,63.0,57.0,49.4,44.0,74,47,33,0.00,40.00,15,12,24,0.00
2013-5-1,72.0,65.6,61.0,65.0,58.8,50.0,100,80,56,0.00,40.00,14,9,24,0.00
2013-5-2,61.0,52.1,36.0,61.0,52.1,36.0,100,100,100,0.00,40.00,18,11,28,0.27
2013-5-3,39.0,35.3,31.0,38.0,33.7,30.0,100,94,70,0.00,40.00,17,13,28,0.46
2013-5-4,40.0,36.4,34.0,40.0,35.9,32.0,100,98,87,0.00,40.00,12,9,22,0.20
2013-5-5,57.0,43.5,34.0,47.0,39.0,34.0,100,86,53,0.00,40.00,14,10,22,0.02
2013-5-6,64.0,53.6,47.0,53.0,49.2,47.0,100,87,58,0.00,40.00,15,10,26,0.00
2013-5-7,73.0,61.4,51.0,55.0,52.3,50.0,100,74,52,0.00,40.00,10,6,15,0.00
2013-5-8,74.0,66.7,59.0,56.0,53.3,50.0,76,63,51,0.00,40.00,10,7,17,0.00
2013-5-9,72.0,64.4,59.0,63.0,56.6,52.0,100,78,56,0.00,40.00,13,8,23,0.19
2013-5-10,71.0,62.3,56.0,62.0,55.2,-99.9,100,83,60,0.00,40.00,11,8,20,0.37
2013-5-11,70.0,58.8,51.0,54.0,45.8,-99.9,100,68,41,0.00,40.00,13,10,21,0.01
2013-5-12,63.0,55.4,45.0,40.0,33.5,28.0,53,44,29,0.00,40.00,13,6,21,0.00
2013-5-13,76.0,63.3,53.0,51.0,42.1,33.0,51,46,37,0.00,40.00,12,6,21,0.00
2013-5-14,80.0,71.3,65.0,58.0,50.0,44.0,52,47,37,0.00,40.00,12,9,22,0.00
2013-5-15,71.0,65.6,62.0,66.0,57.1,47.0,100,76,49,0.00,40.00,13,9,20,0.10
2013-5-16,62.0,53.2,57.0,62.0,35.7,-99.9,100,100,100,0.00,40.00,11,7,18,0.30
2013-5-17,77.0,66.1,60.0,70.0,55.4,-99.9,100,90,67,0.00,40.00,7,4,12,0.01
2013-5-18,77.0,70.5,67.0,76.0,70.2,67.0,100,99,87,0.00,40.00,11,7,16,0.01
2013-5-19,80.0,73.3,68.0,71.0,67.7,63.0,100,84,59,0.00,40.00,16,11,26,0.00
2013-5-20,74.0,69.2,60.0,72.0,68.2,60.0,100,97,87,0.00,40.00,17,9,36,0.40
2013-5-21,65.0,59.9,57.0,64.0,59.2,56.0,100,98,88,0.00,40.00,17,8,36,1.71
2013-5-22,73.0,62.9,54.0,63.0,57.9,54.0,100,85,64,0.00,40.00,10,7,21,0.51
2013-5-23,73.0,67.8,62.0,61.0,57.7,52.0,82,71,63,0.00,40.00,9,5,15,0.01
2013-5-24,71.0,62.3,54.0,59.0,54.1,46.0,100,76,60,0.00,40.00,12,9,19,0.00
2013-5-25,74.0,64.7,58.0,64.0,53.4,44.0,80,67,60,0.00,40.00,12,8,19,0.00
2013-5-26,77.0,68.6,63.0,69.0,63.5,59.0,100,84,63,0.00,40.00,10,8,20,0.00
2013-5-27,76.0,68.7,63.0,70.0,64.8,63.0,100,88,70,0.00,40.00,12,8,20,0.00
2013-5-28,77.0,70.5,66.0,69.0,64.6,62.0,100,83,62,0.00,40.00,15,10,21,0.00
2013-5-29,77.0,70.2,66.0,68.0,65.4,63.0,100,85,67,0.00,40.00,13,10,22,0.00
2013-5-30,70.0,66.6,61.0,70.0,65.9,58.0,100,98,83,0.00,40.00,14,11,25,1.24
2013-5-31,80.0,71.6,65.0,76.0,70.2,65.0,100,96,78,0.00,40.00,12,10,24,1.00
2013-6-1,74.0,64.8,61.0,74.0,64.6,61.0,100,99,95,0.00,40.00,17,7,29,2.61
2013-6-2,67.0,61.4,55.0,62.0,56.4,55.0,100,85,69,0.00,40.00,11,7,17,0.01
2013-6-3,73.0,62.6,52.0,61.0,55.8,52.0,100,80,58,0.00,40.00,11,6,15,0.00
2013-6-4,74.0,65.7,59.0,64.0,59.7,56.0,96,82,69,0.00,40.00,13,9,21,0.00
2013-6-5,78.0,69.0,65.0,69.0,62.3,57.0,99,80,64,0.00,40.00,13,7,21,0.01
2013-6-6,73.0,65.3,60.0,64.0,60.1,57.0,100,84,65,0.00,40.00,12,9,19,0.01
2013-6-7,74.0,64.8,57.0,60.0,53.8,48.0,99,70,45,0.00,40.00,10,8,17,0.00
2013-6-8,77.0,67.8,60.0,58.0,54.2,50.0,72,62,46,0.00,40.00,8,6,16,0.00
2013-6-9,79.0,69.8,64.0,68.0,59.8,52.0,99,73,41,0.00,40.00,12,7,19,0.00
2013-6-10,86.0,77.6,68.0,65.0,60.1,52.0,69,56,39,0.00,40.00,14,9,26,0.00
2013-6-11,88.0,80.4,74.0,68.0,64.7,61.0,73,60,45,0.00,40.00,13,8,19,0.00
2013-6-12,85.0,78.4,72.0,70.0,68.2,66.0,85,72,56,0.00,40.00,14,10,24,0.00
2013-6-13,88.0,80.1,74.0,72.0,68.5,62.0,83,69,55,0.00,40.00,12,8,23,0.00
2013-6-14,84.0,75.3,68.0,69.0,65.2,63.0,87,71,61,0.00,40.00,11,8,17,0.00
2013-6-15,82.0,75.7,70.0,66.0,62.4,56.0,74,64,53,0.00,40.00,11,7,18,0.00
2013-6-16,82.0,72.8,67.0,73.0,66.4,59.0,93,80,70,0.00,40.00,12,6,19,0.22
2013-6-17,75.0,68.5,65.0,70.0,66.8,61.0,100,95,75,0.00,40.00,8,5,17,0.36
2013-6-18,80.0,70.6,62.0,67.0,62.5,59.0,100,78,53,0.00,40.00,14,6,21,0.32
2013-6-19,81.0,73.6,64.0,64.0,62.4,60.0,95,69,51,0.00,40.00,9,5,15,0.01
2013-6-20,83.0,73.7,68.0,69.0,66.1,63.0,88,78,60,0.00,40.00,11,7,17,0.00
2013-6-22,84.0,79.1,72.0,74.0,69.8,67.0,92,74,60,0.00,40.00,9,8,15,0.00
2013-6-23,85.0,76.1,70.0,74.0,69.3,65.0,100,81,57,0.00,40.00,11,8,18,0.00
2013-6-24,84.0,77.0,70.0,73.0,69.1,65.0,99,78,59,0.00,40.00,10,7,16,0.00
2013-6-25,83.0,76.3,71.0,74.0,68.4,65.0,100,78,58,0.00,40.00,12,9,19,0.00
2013-6-26,88.0,79.0,72.0,72.0,70.7,68.0,96,77,59,0.00,40.00,11,9,20,0.00
2013-6-27,92.0,83.6,76.0,73.0,70.3,67.0,80,65,52,0.00,40.00,9,7,14,0.00
2013-6-28,88.0,81.7,76.0,73.0,66.2,58.0,90,62,37,0.00,40.00,13,9,21,0.00
2013-6-29,82.0,74.6,67.0,61.0,53.3,48.0,66,49,34,0.00,40.00,13,8,25,0.00
2013-6-30,73.0,68.3,62.0,58.0,55.2,50.0,83,64,49,0.00,40.00,13,10,28,0.00
2013-7-1,78.0,68.8,60.0,59.0,53.6,47.0,88,62,37,0.00,40.00,14,9,24,0.00
2013-7-2,77.0,68.8,60.0,54.0,50.3,45.0,69,53,35,0.00,40.00,10,7,18,0.00
2013-7-3,80.0,71.4,61.0,57.0,50.2,45.0,77,49,29,0.00,40.00,10,5,16,0.00
2013-7-4,82.0,73.3,65.0,56.0,52.2,46.0,62,49,34,0.00,40.00,10,5,16,0.00
2013-7-5,84.0,76.1,66.0,58.0,53.0,50.0,58,46,31,0.00,40.00,12,6,21,0.00
2013-7-6,85.0,74.0,67.0,67.0,61.3,54.0,85,67,39,0.00,40.00,12,7,21,0.00
2013-7-7,87.0,77.4,69.0,67.0,64.0,61.0,86,65,44,0.00,40.00,10,6,16,0.00
2013-7-8,88.0,77.5,71.0,72.0,65.4,-99.9,91,70,47,0.00,40.00,9,6,15,0.00
2013-7-9,90.0,80.9,73.0,71.0,66.5,64.0,82,63,45,0.00,40.00,11,7,18,0.00
2013-7-10,94.0,78.9,70.0,71.0,62.2,-99.9,100,62,41,0.00,40.00,11,7,21,0.78
2013-7-11,89.0,80.1,71.0,74.0,67.2,60.0,87,66,44,0.00,40.00,8,5,16,0.74
2013-7-12,84.0,76.0,67.0,65.0,60.5,48.0,80,60,39,0.00,40.00,8,6,18,0.00
2013-7-13,82.0,74.3,67.0,61.0,54.4,47.0,58,50,38,0.00,40.00,10,6,16,0.00
2013-7-14,83.0,73.8,67.0,62.0,57.6,51.0,71,58,37,0.00,40.00,12,8,20,0.00
2013-7-15,86.0,75.7,68.0,68.0,65.2,61.0,95,72,47,0.00,40.00,12,9,24,0.00
2013-7-16,85.0,80.9,76.0,73.0,66.4,63.0,77,62,55,0.00,40.00,12,9,19,0.01
2013-7-17,89.0,79.4,72.0,69.0,65.3,60.0,83,64,38,0.00,40.00,12,6,21,0.01
2013-7-18,91.0,81.2,72.0,71.0,64.3,58.0,87,59,36,0.00,40.00,20,5,50,0.64
2013-7-19,83.0,71.8,67.0,74.0,67.4,64.0,100,87,74,0.00,40.00,13,5,18,2.19
2013-7-20,83.0,72.4,67.0,70.0,64.4,-99.9,100,79,52,0.00,40.00,12,6,20,0.26
2013-7-21,79.0,74.9,70.0,72.0,68.6,64.0,91,81,71,0.00,40.00,9,6,12,0.02
2013-7-22,86.0,76.8,67.0,72.0,66.8,61.0,90,72,60,0.00,40.00,13,7,31,0.30
2013-7-23,88.0,78.4,68.0,74.0,69.7,61.0,100,76,54,0.00,40.00,11,8,22,0.56
2013-7-24,82.0,72.3,65.0,68.0,66.5,62.0,100,84,61,0.00,40.00,15,9,24,0.96
2013-7-25,77.0,72.9,68.0,69.0,67.0,63.0,93,82,70,0.00,40.00,7,5,11,0.01
2013-7-26,71.0,66.1,63.0,66.0,63.5,61.0,100,92,72,0.00,40.00,9,6,16,0.73
2013-7-27,80.0,69.9,61.0,66.0,61.1,56.0,100,77,45,0.00,40.00,10,6,18,0.02
2013-7-28,79.0,69.8,63.0,65.0,59.4,53.0,86,70,60,0.00,40.00,9,6,13,0.01
2013-7-29,80.0,71.0,66.0,72.0,67.3,63.0,96,88,76,0.00,40.00,12,8,19,0.00
2013-7-30,80.0,73.9,69.0,72.0,70.3,65.0,100,89,73,0.00,40.00,12,7,19,0.08
2013-7-31,85.0,76.7,70.0,78.0,72.4,69.0,100,87,71,0.00,40.00,11,6,16,0.09
2013-8-1,85.0,76.4,68.0,69.0,67.3,65.0,100,75,57,0.00,40.00,8,5,13,0.01
2013-8-2,80.0,73.7,67.0,76.0,69.4,63.0,96,86,71,0.00,40.00,9,8,18,0.00
2013-8-3,82.0,74.6,65.0,76.0,71.8,65.0,100,91,74,0.00,40.00,15,7,28,1.12
2013-8-4,77.0,73.3,70.0,74.0,70.1,66.0,100,90,79,0.00,40.00,10,6,18,0.02
2013-8-5,85.0,76.0,69.0,79.0,73.4,68.0,100,93,76,0.00,40.00,11,7,19,0.01
2013-8-6,87.0,80.3,75.0,76.0,73.3,69.0,95,80,68,0.00,40.00,9,6,14,0.00
2013-8-7,85.0,80.5,76.0,74.0,71.3,66.0,85,74,64,0.00,40.00,9,6,19,0.00
2013-8-8,86.0,75.7,67.0,75.0,70.7,66.0,100,86,64,0.00,40.00,11,8,32,3.34
2013-8-9,82.0,72.9,67.0,74.0,69.8,65.0,100,90,72,0.00,40.00,8,6,16,0.64
2013-8-10,81.0,74.1,66.0,75.0,70.9,66.0,100,90,77,0.00,40.00,10,7,27,1.85
2013-8-11,83.0,73.5,70.0,75.0,70.3,68.0,100,90,70,0.00,40.00,7,5,12,1.37
2013-8-12,83.0,73.6,68.0,76.0,71.2,68.0,100,93,78,0.00,40.00,9,5,28,0.31
2013-8-13,75.0,69.3,68.0,73.0,66.3,-99.9,100,93,83,0.00,40.00,10,5,19,0.39
2013-8-14,74.0,67.2,62.0,64.0,58.9,52.0,95,76,56,0.00,40.00,12,8,20,0.01
2013-8-15,74.0,59.5,57.0,58.0,41.4,-99.9,76,62,50,0.00,40.00,8,5,14,0.00
2013-8-16,72.0,61.8,60.0,58.0,49.1,-99.9,80,69,57,0.00,40.00,7,5,12,0.00
2013-8-17,76.0,65.0,58.0,61.0,55.6,-99.9,91,75,57,0.00,40.00,9,6,15,0.00
2013-8-18,78.0,70.1,63.0,63.0,61.7,60.0,96,76,58,0.00,40.00,7,5,12,0.00
2013-8-19,80.0,66.8,64.0,68.0,54.9,-99.9,96,78,61,0.00,40.00,8,4,11,0.00
2013-8-20,81.0,72.2,67.0,67.0,60.3,-99.9,91,71,51,0.00,40.00,8,5,13,0.00
2013-8-21,85.0,76.3,69.0,67.0,62.7,61.0,79,64,46,0.00,40.00,7,5,12,0.00
2013-8-22,86.0,78.4,71.0,70.0,65.2,61.0,82,65,50,0.00,40.00,6,5,11,0.00
2013-8-23,88.0,79.1,70.0,71.0,67.2,63.0,94,68,48,0.00,40.00,10,5,17,0.00
2013-8-24,86.0,77.5,73.0,70.0,64.9,-99.9,87,68,52,0.00,40.00,10,6,18,0.00
2013-8-25,87.0,78.5,73.0,72.0,69.1,66.0,89,74,56,0.00,40.00,12,7,20,0.00
2013-8-26,84.0,76.6,70.0,73.0,68.1,63.0,99,77,55,0.00,40.00,12,6,18,0.00
2013-8-27,84.0,75.7,70.0,66.0,63.4,61.0,73,66,51,0.00,40.00,8,6,12,0.00
2013-8-28,87.0,82.4,75.0,68.0,67.0,65.0,76,60,50,0.00,40.00,7,5,11,0.00
2013-8-29,91.0,80.6,72.0,72.0,67.4,63.0,77,65,49,0.00,40.00,7,3,11,0.00
2013-8-30,89.0,81.7,76.0,72.0,67.1,63.0,75,62,49,0.00,40.00,7,5,12,0.00
2013-8-31,91.0,81.7,77.0,69.0,64.1,-99.9,69,58,43,0.00,40.00,7,5,13,0.00
2013-9-1,88.0,79.2,71.0,71.0,66.2,62.0,91,66,54,0.00,40.00,12,6,21,0.11
2013-9-2,84.0,76.2,71.0,71.0,65.8,61.0,90,71,54,0.00,40.00,8,7,14,0.11
2013-9-3,84.0,74.2,66.0,63.0,59.9,56.0,77,62,46,0.00,40.00,8,6,13,0.00
2013-9-4,83.0,74.6,67.0,61.0,56.5,53.0,63,54,43,0.00,40.00,8,6,14,0.00
2013-9-5,83.0,73.9,66.0,62.0,58.5,54.0,76,60,43,0.00,40.00,8,6,16,0.00
2013-9-6,85.0,75.2,67.0,64.0,59.0,56.0,71,58,41,0.00,40.00,8,5,15,0.00
2013-9-7,89.0,77.7,70.0,67.0,59.9,-99.9,77,58,38,0.00,40.00,9,5,16,0.00
2013-9-8,90.0,81.8,76.0,66.0,61.7,58.0,58,51,40,0.00,40.00,7,5,13,0.00
2013-9-9,89.0,82.6,77.0,66.0,60.8,58.0,56,48,40,0.00,40.00,9,6,16,0.00
2013-9-10,88.0,80.8,76.0,65.0,60.6,58.0,62,51,40,0.00,40.00,8,5,17,0.00
2013-9-11,88.0,79.1,73.0,67.0,64.0,61.0,77,61,45,0.00,40.00,11,4,16,0.34
2013-9-12,86.0,77.8,71.0,70.0,66.0,61.0,78,68,50,0.00,40.00,9,5,14,0.09
2013-9-13,80.0,71.1,65.0,65.0,55.9,48.0,82,60,43,0.00,40.00,12,8,22,0.00
2013-9-14,76.0,65.3,59.0,52.0,46.8,-99.9,67,54,40,0.00,40.00,11,8,17,0.00
2013-9-15,81.0,68.8,59.0,59.0,51.0,44.0,61,54,41,0.00,40.00,11,6,17,0.00
2013-9-16,80.0,72.8,69.0,67.0,59.7,52.0,77,64,52,0.00,40.00,11,6,17,0.00
2013-9-17,83.0,72.9,64.0,65.0,61.6,58.0,93,70,48,0.00,40.00,11,7,18,0.00
2013-9-18,74.0,71.4,71.0,62.0,60.2,59.0,70,68,59,0.00,40.00,10,7,18,0.00
2013-9-19,82.0,74.2,70.0,74.0,65.7,62.0,92,75,63,0.00,40.00,10,7,22,0.33
2013-9-20,75.0,65.7,59.0,68.0,63.0,51.0,100,92,75,0.00,40.00,13,8,20,0.87
2013-9-21,72.0,61.2,54.0,52.0,42.9,-99.9,82,56,30,0.00,40.00,13,9,21,0.02
2013-9-22,73.0,63.5,54.0,50.0,45.0,38.0,68,52,39,0.00,40.00,8,6,14,0.00
2013-9-23,73.0,65.0,58.0,52.0,49.6,47.0,70,58,45,0.00,40.00,14,11,21,0.00
2013-9-24,78.0,68.9,63.0,56.0,52.8,49.0,73,58,39,0.00,40.00,11,7,20,0.00
2013-9-25,76.0,66.2,57.0,59.0,55.5,53.0,90,70,51,0.00,40.00,10,6,15,0.00
2013-9-26,80.0,70.5,63.0,59.0,55.9,53.0,74,61,47,0.00,40.00,8,6,14,0.00
2013-9-27,80.0,71.7,66.0,62.0,58.1,54.0,75,63,43,0.00,40.00,11,8,19,0.00
2013-9-28,78.0,67.9,66.0,67.0,61.1,-99.9,100,82,65,0.00,40.00,12,8,20,0.81
2013-9-29,75.0,65.9,61.0,67.0,63.5,61.0,100,93,71,0.00,40.00,8,6,21,0.43
2013-9-30,76.0,67.2,63.0,68.0,64.1,60.0,100,91,61,0.00,40.00,8,6,15,0.01
2013-10-1,71.0,69.5,68.0,69.0,68.4,67.0,100,96,87,0.00,40.00,7,6,12,0.00
2013-10-2,75.0,69.8,67.0,75.0,69.5,67.0,100,99,90,0.00,40.00,9,6,20,0.70
2013-10-3,76.0,69.3,66.0,75.0,68.5,66.0,100,98,82,0.00,40.00,10,7,16,0.31
2013-10-4,80.0,71.7,67.0,74.0,67.3,61.0,100,88,53,0.00,40.00,11,9,21,0.31
2013-10-5,70.0,62.7,48.0,70.0,62.7,48.0,100,100,100,0.00,40.00,13,9,35,1.11
2013-10-6,60.0,51.8,45.0,50.0,42.5,39.0,100,72,52,0.00,40.00,12,8,20,0.33
2013-10-7,67.0,56.2,47.0,45.0,42.3,39.0,90,62,37,0.00,40.00,11,6,18,0.00
2013-10-8,67.0,60.0,54.0,47.0,42.6,37.0,62,53,46,0.00,40.00,12,8,19,0.00
2013-10-9,69.0,60.9,53.0,49.0,44.8,40.0,72,56,42,0.00,40.00,12,7,19,0.00
2013-10-10,71.0,64.0,56.0,55.0,51.9,49.0,79,65,50,0.00,40.00,13,7,22,0.00
2013-10-11,70.0,63.1,57.0,67.0,60.8,54.0,100,92,79,0.00,40.00,11,8,17,0.00
2013-10-12,76.0,66.3,61.0,70.0,62.0,-99.9,100,90,71,0.00,40.00,13,6,20,0.13
2013-10-13,71.0,63.2,58.0,63.0,54.8,50.0,100,76,60,0.00,40.00,10,8,18,0.01
2013-10-14,63.0,60.8,58.0,61.0,52.3,43.0,100,74,57,0.00,40.00,12,9,24,0.15
2013-10-15,65.0,60.5,53.0,65.0,60.5,53.0,100,100,100,0.00,40.00,11,7,16,1.41
2013-10-16,60.0,50.9,45.0,53.0,47.5,45.0,100,89,63,0.00,40.00,13,8,22,0.87
2013-10-17,61.0,51.4,42.0,48.0,44.8,41.0,100,80,61,0.00,40.00,9,6,18,0.02
2013-10-18,61.0,52.5,47.0,52.0,45.9,41.0,100,79,60,0.00,40.00,9,5,14,0.17
2013-10-19,54.0,45.4,36.0,49.0,36.3,-99.9,100,76,39,0.00,40.00,14,8,23,0.18
2013-10-20,61.0,52.1,45.0,42.0,37.3,32.0,67,57,47,0.00,40.00,9,7,16,0.02
2013-10-21,59.0,50.5,43.0,50.0,44.8,40.0,100,82,62,0.00,40.00,13,6,18,0.40
2013-10-22,60.0,50.0,41.0,47.0,39.1,32.0,90,67,52,0.00,40.00,10,7,18,0.02
2013-10-23,59.0,49.5,42.0,41.0,35.8,30.0,81,60,36,0.00,40.00,10,7,18,0.00
2013-10-24,55.0,49.6,40.0,41.0,35.1,27.0,74,58,43,0.00,40.00,10,6,17,0.00
2013-10-25,50.0,41.8,35.0,29.0,25.4,21.0,61,52,42,0.00,40.00,11,8,17,0.00
2013-10-26,57.0,48.1,40.0,53.0,38.5,-99.9,100,72,57,0.00,40.00,8,6,15,0.00
2013-10-27,57.0,53.3,51.0,56.0,52.9,51.0,100,99,90,0.00,40.00,6,5,9,0.00
2013-10-28,58.0,53.9,52.0,57.0,52.1,-99.9,100,99,83,0.00,40.00,9,5,14,0.00
2013-10-29,64.0,59.2,55.0,64.0,59.2,55.0,100,100,100,0.00,40.00,12,8,18,0.38
2013-10-30,63.0,61.6,58.0,63.0,61.6,58.0,100,100,100,0.00,40.00,12,9,19,0.54
2013-10-31,67.0,59.0,50.0,66.0,55.8,43.0,100,91,47,0.00,40.00,15,10,32,0.85
2013-11-1,65.0,56.9,51.0,48.0,41.0,37.0,87,56,40,0.00,40.00,10,8,22,0.00
2013-11-2,53.0,46.2,42.0,39.0,32.7,-99.9,79,62,47,0.00,40.00,16,10,26,0.00
2013-11-3,54.0,46.4,41.0,38.0,35.2,31.0,76,65,53,0.00,40.00,14,8,23,0.00
2013-11-4,50.0,46.6,44.0,50.0,43.0,37.0,100,88,76,0.00,40.00,12,9,18,0.24
2013-11-5,57.0,52.9,50.0,57.0,52.9,50.0,100,100,100,0.00,40.00,11,9,19,2.01
2013-11-6,59.0,47.8,35.0,59.0,47.6,35.0,100,100,95,0.00,40.00,16,10,27,3.54
2013-11-7,59.0,44.8,33.0,41.0,32.0,27.0,100,65,32,0.00,40.00,9,6,18,0.02
2013-11-8,57.0,48.8,45.0,40.0,35.1,30.0,73,59,50,0.00,40.00,12,8,17,0.00
2013-11-9,56.0,49.6,46.0,44.0,38.7,-99.9,78,69,60,0.00,40.00,9,6,13,0.00
2013-11-10,62.0,54.2,49.0,43.0,39.3,36.0,74,57,45,0.00,40.00,9,7,14,0.00
2013-11-11,63.0,55.0,48.0,49.0,41.7,35.0,79,61,49,0.00,40.00,7,5,13,0.00
2013-11-12,55.0,35.9,27.0,49.0,20.6,8.0,93,57,26,0.00,40.00,19,10,33,0.00
2013-11-13,42.0,32.2,24.0,18.0,13.9,10.0,56,47,33,0.00,40.00,8,6,13,0.00
2013-11-14,47.0,38.3,29.0,29.0,21.7,15.0,62,51,44,0.00,40.00,11,8,17,0.00
2013-11-15,49.0,42.8,40.0,49.0,38.2,27.0,100,86,52,0.00,40.00,11,8,18,0.05
2013-11-16,63.0,55.4,49.0,63.0,54.0,-99.9,100,99,100,0.00,40.00,12,10,19,0.81
2013-11-17,73.0,64.9,53.0,66.0,49.4,19.0,100,66,22,0.00,40.00,15,11,29,0.69
2013-11-18,60.0,51.2,43.0,34.0,24.0,16.0,59,36,21,0.00,40.00,10,7,18,0.00
2013-11-19,51.0,46.6,42.0,27.0,21.0,14.0,47,36,26,0.00,40.00,16,10,25,0.00
2013-11-20,53.0,44.9,37.0,31.0,26.0,18.0,60,48,37,0.00,40.00,15,12,25,0.00
2013-11-21,54.0,50.5,48.0,54.0,44.2,31.0,100,81,48,0.00,40.00,11,7,17,0.44
2013-11-22,54.0,37.5,32.0,54.0,37.5,32.0,100,100,100,0.00,40.00,18,12,26,0.07
2013-11-23,36.0,31.2,24.0,32.0,20.8,-99.9,100,71,41,0.00,40.00,16,11,24,0.07
2013-11-24,28.0,22.6,16.0,13.0,7.9,5.0,71,54,38,0.00,40.00,15,8,25,0.00
2013-11-25,31.0,26.7,23.0,31.0,22.4,9.0,100,85,53,0.00,40.00,11,6,17,0.04
2013-11-26,42.0,32.7,27.0,30.0,26.5,18.0,100,80,52,0.00,40.00,21,12,38,0.06
2013-11-27,36.0,26.2,17.0,18.0,9.5,5.0,73,51,30,0.00,40.00,16,10,30,0.01
2013-11-28,46.0,36.1,27.0,23.0,15.4,9.0,54,43,32,0.00,40.00,9,7,13,0.00
2013-11-29,50.0,43.8,36.0,28.0,24.8,22.0,58,47,35,0.00,40.00,10,8,19,0.00
2013-11-30,50.0,42.5,37.0,42.0,31.4,-99.9,85,67,58,0.00,40.00,12,8,17,0.00
2013-12-1,53.0,50.0,47.0,51.0,47.4,42.0,100,91,82,0.00,40.00,7,4,10,0.00
2013-12-2,59.0,51.6,48.0,52.0,49.3,47.0,100,93,70,0.00,40.00,8,5,14,0.00
2013-12-3,54.0,50.0,47.0,54.0,50.0,47.0,100,100,100,0.00,40.00,12,8,20,0.04
2013-12-4,61.0,52.2,42.0,57.0,48.6,40.0,100,89,62,0.00,40.00,12,8,23,0.05
2013-12-5,42.0,28.3,25.0,42.0,19.5,-99.9,100,90,89,0.00,40.00,16,8,24,0.01
2013-12-6,20.0,9.8,17.0,20.0,-47.7,-99.9,100,44,95,0.00,40.00,0,0,0,0.00
2013-12-7,23.0,15.2,9.0,15.0,-1.4,-99.9,86,69,69,0.00,40.00,0,0,0,0.00
2013-12-8,25.0,12.8,18.0,25.0,-24.1,-99.9,100,63,100,0.00,40.00,7,3,10,0.00
2013-12-9,29.0,24.4,20.0,29.0,17.3,-99.9,100,94,99,0.00,40.00,5,3,6,0.06
2013-12-10,29.0,21.2,16.0,28.0,2.3,-99.9,100,79,82,0.00,40.00,5,2,7,0.26
2013-12-11,42.0,29.9,23.0,29.0,17.4,-99.9,100,75,53,0.00,40.00,12,4,19,0.61
2013-12-12,43.0,27.9,19.0,24.0,16.7,11.0,78,64,38,0.00,40.00,9,6,16,0.24
2013-12-13,32.0,28.8,30.0,32.0,15.4,-99.9,100,72,62,0.00,40.00,12,6,18,0.25
2013-12-14,33.0,27.6,25.0,33.0,18.8,-99.9,100,91,100,0.00,40.00,15,8,24,0.43
2013-12-15,42.0,33.6,23.0,30.0,25.7,21.0,100,75,57,0.00,40.00,14,7,22,0.21
2013-12-16,55.0,47.6,41.0,34.0,30.5,28.0,63,52,43,0.00,40.00,13,9,20,0.01
2013-12-17,59.0,50.7,45.0,36.0,28.3,20.0,64,44,25,0.00,40.00,12,9,23,0.01
2013-12-18,53.0,46.6,38.0,38.0,29.6,18.0,69,52,37,0.00,40.00,14,10,19,0.00
2013-12-19,56.0,50.0,45.0,56.0,46.9,38.0,100,90,67,0.00,40.00,16,11,21,0.00
2013-12-20,61.0,57.4,53.0,61.0,57.4,53.0,100,100,100,0.00,40.00,10,9,18,0.09
2013-12-21,51.0,45.7,39.0,50.0,43.2,-99.9,100,97,97,0.00,40.00,14,8,26,2.11
2013-12-22,39.0,28.4,24.0,39.0,28.3,23.0,100,99,94,0.00,40.00,11,8,19,0.01
2013-12-23,32.0,24.7,21.0,25.0,22.3,21.0,100,91,71,0.00,40.00,10,7,19,0.00
2013-12-24,31.0,24.5,19.0,24.0,16.1,8.0,99,70,52,0.00,40.00,14,9,21,0.00
2013-12-25,44.0,33.1,25.0,33.0,28.8,24.0,100,85,64,0.00,40.00,11,7,16,0.00
2013-12-26,44.0,36.1,29.0,29.0,25.9,20.0,98,68,45,0.00,40.00,10,6,15,0.00
2013-12-27,51.0,43.3,36.0,34.0,27.1,19.0,70,53,37,0.00,40.00,9,6,14,0.00
2013-12-28,47.0,41.4,38.0,32.0,26.5,-99.9,79,58,47,0.00,40.00,8,6,12,0.00
2013-12-29,44.0,34.6,21.0,38.0,30.1,18.0,98,84,68,0.00,40.00,15,10,23,0.01
2013-12-30,29.0,24.2,20.0,25.0,18.7,15.0,100,80,61,0.00,40.00,9,6,14,0.01
2013-12-31,47.0,36.5,25.0,26.0,22.3,16.0,87,57,40,0.00,40.00,11,8,17,0.00
2014-1-1,45.0,38.3,31.0,37.0,28.2,23.0,79,67,56,0.00,40.00,12,8,21,0.00
2014-1-2,39.0,22.2,14.0,28.0,12.9,4.0,92,69,47,0.00,40.00,18,12,32,0.00